Back to catalog

COSMOS 2499 DEB

AlivePO
NORAD 56581·DEBRIS·🇷🇺 Russia

Launched May 23, 2014 from Plesetsk Cosmodrome

Loading…

Next Passes (next 24 hours)

TLE

FreshSource: Space-Track

Epoch: Sep 14, 2026, 07:13 UTC

1 56581U 14028BQ  26257.30097002  .00006832  00000-0  95989-2 0  9994
2 56581  82.2289  98.6148 0329412 289.2547  67.3225 13.37110494110754

Track COSMOS 2499 DEB in real time with AllMySat

Download on the App Store